Kezdőlap
METAR-TAF:

METAR-TAF

Repülőterek :

Tôlanaro, Madagaszkár

földrajzi szélesség: 25-02S, földrajzi hosszúság: 046-57E, magasság: 8 m

Jelenlegi meteorológiai megfigyelések

A jelentés 40 perccel ezelõtt készült, 03:00 UTC
Keleti szél 10 kt
Hőmérséklet 20°C
Páratartalom 88%
Légköri nyomás 1023 hPa
Látótávolság 10 km, vagy több
Szórványos felhőzet 1600 lábon
Szórványos felhőzet 3300 lábon
enyhe esõ,

METAR: FMSD 220300Z 08010KT 9999 -RA SCT016 SCT033 20/18 Q1023

Idő: 06:40 (03:40 UTC)


TAF: hiányzik

Meteorológiai megfigyelések és előrejelzések több, mint 4000 repülőtéren (METAR és TAF jelentéseket).

A térképen piros és sárga pontok jelzik az elérhető meteorológiai állomásokat.

Mozgassa az egeret a pont fölött, hogy megjelenjen az állomás neve.

Azután kattintson az időjárási megfigyelések és előrejelzések megtekintéséhez.

A térkép megváltoztatása: kattintson a fekete keresztel jelölt zöld gombra ráközelítéshez, a vonallal jelölt zöld gombra távolításhoz, vagy a zöld nyilakra a szomszédos térképek eléréséhez.


METAR-TAF: